Sidney-Richland, MT

11:10 AM MDT on July 28, 2017 (GMT -0600)
Sidney-Richland Municipal

Weather History for KSDY - March, 2014

Change the Weather History Date:

Monday, March 24, 2014

  Actual Average Record
Temperature  
Mean Temperature 20 °F -  
Max Temperature 30 °F 50 °F 77 °F (1993)
Min Temperature 10 °F 24 °F -20 °F (1965)
Degree Days  
Heating Degree Days 45    
Moisture  
Dew Point 10 °F    
Average Humidity 63    
Maximum Humidity 93    
Minimum Humidity 37    
Precipitation  
Precipitation 0.00 in - - ()
Sea Level Pressure  
Sea Level Pressure 30.36 in    
Wind  
Wind Speed 8 mph (NNW)    
Max Wind Speed 23 mph    
Max Gust Speed 33 mph    
Visibility 9 miles    
Events      
Averages and records for this station are not official NWS values.
T = Trace of Precipitation, MM = Missing Value Source: NWS Daily Summary

Daily Weather History Graph

Daily Weather History Graph

Search for Another Location

Airport or City:

Trip Planner

Search our weather history database for the weather conditions in past years. The results will help you decide how hot, cold, wet, or windy it might be!

Date:

Astronomy

Mar. 24, 2014 Rise Set
Actual Time 6:51 AM MDT 7:15 PM MDT
Civil Twilight 6:20 AM MDT 7:46 PM MDT
Nautical Twilight 5:44 AM MDT 8:22 PM MDT
Astronomical Twilight 5:06 AM MDT 9:00 PM MDT
Moon 2:47 AM MDT (3/24) 12:20 PM MDT (3/24)
Length of Visible Light 13h 25m
Length of Day
12h 23m
Last Quarter, 42% of the Moon is Illuminated
Mar 24
Last Quarter
Mar 30
New
Apr 7
First Quarter
Apr 15
Full
Apr 22
Last Quarter

Hourly Weather History & Observations

Time (MDT) Temp. Windchill Dew Point Humidity Pressure Visibility Wind Dir Wind Speed Gust Speed Precip Events Conditions
12:15 AM 17.6 °F 8.2 °F 10.4 °F 73% 30.30 in 10.0 mi NW 6.9 mph - N/A   Partly Cloudy
12:35 AM 17.6 °F 9.3 °F 10.4 °F 73% 30.31 in 10.0 mi WNW 5.8 mph - N/A   Scattered Clouds
12:55 AM 19.4 °F 12.8 °F 14.0 °F 80% 30.31 in 10.0 mi NW 4.6 mph - N/A   Overcast
1:15 AM 21.2 °F 13.6 °F 12.2 °F 68% 30.32 in 10.0 mi NW 5.8 mph - N/A   Overcast
1:35 AM 21.2 °F - 12.2 °F 68% 30.32 in 10.0 mi Calm Calm - N/A   Overcast
1:55 AM 21.2 °F 16.4 °F 14.0 °F 74% 30.32 in 10.0 mi WNW 3.5 mph - N/A   Overcast
2:15 AM 21.2 °F 14.9 °F 14.0 °F 74% 30.32 in 10.0 mi WNW 4.6 mph - N/A   Overcast
2:35 AM 21.2 °F 16.4 °F 14.0 °F 74% 30.32 in 10.0 mi WNW 3.5 mph - N/A   Mostly Cloudy
2:55 AM 21.2 °F - 14.0 °F 74% 30.31 in 10.0 mi Calm Calm - N/A   Mostly Cloudy
3:15 AM 21.2 °F - 14.0 °F 74% 30.32 in 10.0 mi Calm Calm - N/A   Scattered Clouds
3:35 AM 19.4 °F - 12.2 °F 74% 30.32 in 10.0 mi Calm Calm - N/A   Mostly Cloudy
3:55 AM 19.4 °F 11.5 °F 15.8 °F 86% 30.33 in 10.0 mi NNE 5.8 mph - N/A   Overcast
4:15 AM 21.2 °F 10.1 °F 12.2 °F 68% 30.32 in 10.0 mi NNE 10.4 mph - N/A   Overcast
4:35 AM 21.2 °F 10.9 °F 14.0 °F 74% 30.33 in 10.0 mi NNE 9.2 mph - N/A   Mostly Cloudy
4:55 AM 19.4 °F 9.5 °F 12.2 °F 74% 30.33 in 10.0 mi NNE 8.1 mph - N/A   Partly Cloudy
5:15 AM 19.4 °F 11.5 °F 14.0 °F 80% 30.34 in 10.0 mi NNE 5.8 mph - N/A   Mostly Cloudy
5:35 AM 19.4 °F 10.4 °F 15.8 °F 86% 30.34 in 10.0 mi NNE 6.9 mph - N/A   Scattered Clouds
5:55 AM 19.4 °F 12.8 °F 15.8 °F 86% 30.34 in 2.5 mi NNE 4.6 mph - N/A   Mostly Cloudy
6:15 AM 19.4 °F - 17.6 °F 93% 30.34 in 2.5 mi Calm Calm - N/A   Overcast
6:35 AM 19.4 °F 14.3 °F 15.8 °F 86% 30.34 in 2.5 mi North 3.5 mph - N/A   Overcast
6:55 AM 19.4 °F - 15.8 °F 86% 30.35 in 2.0 mi Calm Calm - N/A   Overcast
7:15 AM 17.6 °F - 15.8 °F 93% 30.35 in 2.5 mi Calm Calm - N/A   Overcast
7:35 AM 17.6 °F - 15.8 °F 93% 30.36 in 10.0 mi Calm Calm - N/A   Overcast
7:55 AM 19.4 °F 14.3 °F 15.8 °F 86% 30.36 in 10.0 mi WSW 3.5 mph - N/A   Overcast
8:15 AM 19.4 °F 14.3 °F 15.8 °F 86% 30.35 in 10.0 mi WSW 3.5 mph - N/A   Overcast
8:35 AM 21.2 °F 13.6 °F 15.8 °F 80% 30.36 in 10.0 mi WNW 5.8 mph - N/A   Overcast
8:55 AM 21.2 °F 12.6 °F 15.8 °F 80% 30.36 in 7.0 mi West 6.9 mph - N/A   Mostly Cloudy
9:35 AM 21.2 °F 10.1 °F 17.6 °F 86% 30.37 in 3.0 mi WNW 10.4 mph - N/A   Overcast
9:55 AM 21.2 °F 8.9 °F 15.8 °F 80% 30.38 in 5.0 mi NW 12.7 mph - N/A   Overcast
10:15 AM 21.2 °F 8.3 °F 14.0 °F 74% 30.38 in 10.0 mi NW 13.8 mph - N/A   Mostly Cloudy
10:35 AM 23.0 °F 11.1 °F 12.2 °F 63% 30.38 in 10.0 mi NW 12.7 mph 16.1 mph N/A   Mostly Cloudy
10:55 AM 24.8 °F 12.9 °F 12.2 °F 59% 30.37 in 10.0 mi NNW 13.8 mph 17.3 mph N/A   Mostly Cloudy
11:15 AM 24.8 °F 12.4 °F 10.4 °F 54% 30.37 in 10.0 mi NW 15.0 mph 19.6 mph N/A   Overcast
11:35 AM 24.8 °F 11.9 °F 10.4 °F 54% 30.37 in 10.0 mi NW 16.1 mph - N/A   Overcast
11:55 AM 26.6 °F 14.7 °F 10.4 °F 51% 30.37 in 10.0 mi NW 15.0 mph 23.0 mph N/A   Mostly Cloudy
12:15 PM 26.6 °F 13.8 °F 6.8 °F 43% 30.37 in 10.0 mi NW 17.3 mph 20.7 mph N/A   Mostly Cloudy
12:35 PM 26.6 °F 15.2 °F 8.6 °F 47% 30.37 in 10.0 mi NW 13.8 mph 21.9 mph N/A   Mostly Cloudy
12:55 PM 28.4 °F 16.6 °F 6.8 °F 40% 30.36 in 10.0 mi NW 16.1 mph 24.2 mph N/A   Mostly Cloudy
1:15 PM 28.4 °F 16.6 °F 5.0 °F 37% 30.36 in 10.0 mi NNW 16.1 mph 23.0 mph N/A   Overcast
1:35 PM 28.4 °F 15.4 °F 6.8 °F 40% 30.36 in 10.0 mi NW 19.6 mph 27.6 mph N/A   Overcast
1:55 PM 28.4 °F 16.2 °F 6.8 °F 40% 30.36 in 10.0 mi NNW 17.3 mph 28.8 mph N/A   Overcast
2:15 PM 28.4 °F 16.2 °F 5.0 °F 37% 30.35 in 10.0 mi NNW 17.3 mph 25.3 mph N/A   Mostly Cloudy
2:35 PM 28.4 °F 14.4 °F 5.0 °F 37% 30.35 in 10.0 mi NNW 23.0 mph 27.6 mph N/A   Mostly Cloudy
2:55 PM 30.2 °F 17.1 °F 8.6 °F 40% 30.35 in 10.0 mi NW 21.9 mph 27.6 mph N/A   Mostly Cloudy
3:15 PM 28.4 °F 14.7 °F 5.0 °F 37% 30.35 in 10.0 mi NNW 21.9 mph 27.6 mph N/A   Mostly Cloudy
3:35 PM 28.4 °F 14.4 °F 6.8 °F 40% 30.35 in 10.0 mi NNW 23.0 mph 29.9 mph N/A   Overcast
3:55 PM 28.4 °F 15.4 °F 6.8 °F 40% 30.36 in 10.0 mi NW 19.6 mph 33.4 mph N/A   Mostly Cloudy
4:15 PM 28.4 °F 16.6 °F 6.8 °F 40% 30.35 in 10.0 mi NNW 16.1 mph 25.3 mph N/A   Scattered Clouds
4:35 PM 28.4 °F 15.1 °F 6.8 °F 40% 30.35 in 10.0 mi NNW 20.7 mph 26.5 mph N/A   Mostly Cloudy
4:55 PM 26.6 °F 12.7 °F 6.8 °F 43% 30.36 in 10.0 mi North 20.7 mph 25.3 mph N/A   Overcast
5:15 PM 26.6 °F 13.8 °F 6.8 °F 43% 30.36 in 10.0 mi North 17.3 mph 24.2 mph N/A   Mostly Cloudy
5:35 PM 26.6 °F 14.7 °F 5.0 °F 40% 30.37 in 10.0 mi NNW 15.0 mph 24.2 mph N/A   Scattered Clouds
5:55 PM 26.6 °F 13.4 °F 6.8 °F 43% 30.37 in 10.0 mi NNW 18.4 mph 26.5 mph N/A   Scattered Clouds
6:15 PM 26.6 °F 14.3 °F 5.0 °F 40% 30.37 in 10.0 mi NW 16.1 mph 25.3 mph N/A   Scattered Clouds
6:35 PM 24.8 °F 11.5 °F 5.0 °F 43% 30.37 in 10.0 mi NNW 17.3 mph 23.0 mph N/A   Partly Cloudy
6:55 PM 24.8 °F 14.6 °F 3.2 °F 40% 30.38 in 10.0 mi NNW 10.4 mph - N/A   Clear
7:15 PM 23.0 °F 11.7 °F 6.8 °F 50% 30.38 in 10.0 mi NNW 11.5 mph - N/A   Clear
7:35 PM 21.2 °F 10.9 °F 5.0 °F 50% 30.38 in 10.0 mi NNW 9.2 mph - N/A   Partly Cloudy
7:55 PM 21.2 °F 10.1 °F 6.8 °F 54% 30.38 in 10.0 mi NNW 10.4 mph - N/A   Partly Cloudy
8:15 PM 19.4 °F 9.5 °F 6.8 °F 58% 30.39 in 10.0 mi NNW 8.1 mph - N/A   Clear
8:35 PM 19.4 °F 8.6 °F 6.8 °F 58% 30.40 in 10.0 mi NNW 9.2 mph - N/A   Clear
8:55 PM 17.6 °F 6.4 °F 6.8 °F 63% 30.40 in 10.0 mi North 9.2 mph - N/A   Clear
9:15 PM 17.6 °F 8.2 °F 6.8 °F 63% 30.41 in 10.0 mi NNW 6.9 mph - N/A   Clear
9:35 PM 15.8 °F 8.6 °F 5.0 °F 62% 30.41 in 10.0 mi NNW 4.6 mph - N/A   Clear
9:55 PM 15.8 °F 4.2 °F 8.6 °F 73% 30.41 in 10.0 mi NNW 9.2 mph - N/A   Clear
10:15 PM 15.8 °F - 5.0 °F 62% 30.41 in 10.0 mi Calm Calm - N/A   Clear
10:35 PM 12.2 °F - 5.0 °F 73% 30.41 in 10.0 mi Calm Calm - N/A   Clear
10:55 PM 12.2 °F 1.7 °F 6.8 °F 79% 30.40 in 10.0 mi NW 6.9 mph - N/A   Clear
11:15 PM 10.4 °F 2.2 °F 3.2 °F 73% 30.41 in 10.0 mi WNW 4.6 mph - N/A   Clear
11:35 PM 10.4 °F 0.8 °F 6.8 °F 85% 30.41 in 10.0 mi WNW 5.8 mph - N/A   Clear
11:55 PM 10.4 °F 0.8 °F 3.2 °F 73% 30.41 in 10.0 mi West 5.8 mph - N/A   Clear